Left ArrowRight Arrow

31.31129, -92.44514

Hourly Observations for June 14, 2024

Temp ( °F °C ) Dew Point ( °F °C ) Humidity (%) Winds ( mph kmh ) Pressure ( in mb ) Visibility ( mi km ) Precip ( " mm )
12:53 am 00:53 Clear 67 19.4 65 18.3 93 93 Calm 29.93 1014 10 16 0.00 0.00
1:53 am 01:53 Clear 68 20 66 18.9 93 93 NW 3 6 29.93 1014 10 16 0.00 0.00
2:53 am 02:53 Clear 67 19.4 65 18.3 93 93 Calm 29.93 1014 10 16 0.00 0.00
3:53 am 03:53 Clear 67 19.4 65 18.3 93 93 N 3 6 29.94 1014 10 16 0.00 0.00
4:53 am 04:53 Clear 66 18.9 63 17.2 90 90 Calm 29.95 1014 10 16 0.00 0.00
5:53 am 05:53 Clear 65 18.3 64 17.8 97 97 Calm 29.96 1015 10 16 0.00 0.00
6:53 am 06:53 Sunny 67 19.4 65 18.3 93 93 Calm 29.97 1015 8 13 0.00 0.00
7:53 am 07:53 Sunny 74 23.3 65 18.3 74 74 Calm 29.98 1015 10 16 0.00 0.00
8:53 am 08:53 Sunny 79 26.1 66 18.9 65 65 Calm 29.99 1016 10 16 0.00 0.00
9:53 am 09:53 Sunny 84 28.9 64 17.8 51 51 VRB 5 7 29.98 1015 10 16 0.00 0.00
10:53 am 10:53 Sunny 87 30.6 65 18.3 48 48 NNE 6 9 29.97 1015 10 16 0.00 0.00
11:53 am 11:53 Sunny 90 32.2 66 18.9 45 45 NE 5 7 29.96 1015 10 16 0.00 0.00
12:53 pm 12:53 Sunny 90 32.2 65 18.3 44 44 Calm 29.96 1015 10 16 0.00 0.00
1:53 pm 13:53 Sunny 91 32.8 65 18.3 42 42 SSE 5 7 29.92 1013 10 16 0.00 0.00
2:53 pm 14:53 Sunny 92 33.3 65 18.3 41 41 VRB 3 6 29.92 1013 10 16 0.00 0.00
3:53 pm 15:53 Sunny 94 34.4 66 18.9 40 40 VRB 7 11 29.90 1013 10 16 0.00 0.00
4:53 pm 16:53 Sunny 95 35 67 19.4 40 40 NNE 6 9 29.90 1012 10 16 0.00 0.00
5:53 pm 17:53 Sunny 94 34.4 66 18.9 40 40 N 3 6 29.89 1012 10 16 0.00 0.00
6:53 pm 18:53 Sunny 91 32.8 65 18.3 42 42 NE 6 9 29.90 1012 10 16 0.00 0.00
7:53 pm 19:53 Sunny 87 30.6 68 20 53 53 ENE 5 7 29.91 1013 10 16 0.00 0.00
8:53 pm 20:53 Clear 80 26.7 70 21.1 71 71 NE 5 7 29.92 1013 10 16 0.00 0.00
9:53 pm 21:53 Clear 81 27.2 69 20.6 67 67 ENE 5 7 29.93 1014 10 16 0.00 0.00
10:53 pm 22:53 Clear 79 26.1 69 20.6 72 72 ENE 3 6 29.94 1014 10 16 0.00 0.00
11:53 pm 23:53 Clear 75 23.9 70 21.1 84 84 Calm 29.94 1014 10 16 0.00 0.00

Powered by Vaisala Xweather